Weather reports worldwide

Advertisment
Ile Rousse, France (7753): temperature & dewpoint: 17.05.2019 14:00:00 - 23.05.2019 14:00:00 (CEST)Ile Rousse, France (7753): wind speed & gusts: 17.05.2019 14:00:00 - 23.05.2019 14:00:00 (CEST)Ile Rousse, France (7753): wind direction: 17.05.2019 14:00:00 - 23.05.2019 14:00:00 (CEST)Ile Rousse, France (7753): reduced air pressure: 17.05.2019 14:00:00 - 23.05.2019 14:00:00 (CEST)Ile Rousse, France (7753): visibility: 17.05.2019 14:00:00 - 23.05.2019 14:00:00 (CEST)Ile Rousse, France (7753): precipitation: 17.05.2019 14:00:00 - 23.05.2019 14:00:00 (CEST)
Date & Time tt [°C] td [°C] ff [km/h] ff [kn] fx [km/h] fx [kn] dd ppp [hPa] vv [km] rr [mm]
23.05.2019 14:00:00 - - - - - - - - - -
23.05.2019 13:00:00 17,0 14,8 13 7 23 12 NNE 1017,5 - 0,0
23.05.2019 12:00:00 16,8 14,4 13 7 22 12 NE 1017,2 - 0,0
23.05.2019 11:00:00 16,0 14,4 11 6 20 11 NNE 1017,6 - 0,0
23.05.2019 10:00:00 16,5 14,7 14 8 24 13 NE 1017,4 - 0,0
23.05.2019 09:00:00 16,3 14,5 16 9 22 12 ENE 1017,1 - 0,0
23.05.2019 08:00:00 15,4 13,6 11 6 21 11 E 1016,8 15 0,0
23.05.2019 07:00:00 14,9 13,1 16 9 21 11 E 1016,5 - 0,0
23.05.2019 06:00:00 14,6 13,3 12 6 13 7 ESE 1016,5 - 0,0
23.05.2019 05:00:00 14,6 13,3 8 4 11 6 WSW 1016,6 15 0,0
23.05.2019 04:00:00 14,7 13,2 10 5 13 7 ESE 1016,5 - 0,0
23.05.2019 03:00:00 14,9 13,6 5 3 10 6 ESE 1016,9 - 0,0
23.05.2019 02:00:00 14,9 13,4 7 4 16 8 SE 1017,1 - 0,0
23.05.2019 01:00:00 14,8 13,5 9 5 19 11 WSW 1017,2 - 0,0
23.05.2019 00:00:00 15,0 13,9 9 5 14 8 WSW 1016,9 - 0,0
22.05.2019 23:00:00 15,2 13,6 5 3 12 7 WNW 1016,7 - 0,0
22.05.2019 22:00:00 15,5 12,6 8 4 13 7 SSE 1016,5 - 0,0
22.05.2019 21:00:00 15,9 12,8 10 5 13 7 ESE 1015,9 - 0,0
22.05.2019 20:00:00 16,3 13,4 5 3 11 6 E 1015,7 15 0,0
22.05.2019 19:00:00 16,2 13,1 6 3 17 9 NNE 1015,6 - 0,0
22.05.2019 18:00:00 16,5 14,3 13 7 22 12 NNW 1015,6 - 0,0
22.05.2019 17:00:00 17,9 14,4 12 7 24 13 NW 1015,5 - 0,0
22.05.2019 16:00:00 17,7 14,8 14 8 26 14 NW 1015,3 - 0,0
22.05.2019 15:00:00 17,3 14,6 17 9 30 16 NW 1015,4 - 0,0
22.05.2019 14:00:00 17,7 14,6 17 9 25 14 NNW 1015,4 - 0,0
22.05.2019 13:00:00 17,5 14,0 14 8 25 14 N 1015,6 - 0,0
22.05.2019 12:00:00 16,6 13,3 19 10 37 20 NNE 1015,7 - 0,0
22.05.2019 11:00:00 16,7 13,2 29 16 39 21 NE 1015,2 15 0,0
22.05.2019 10:00:00 15,8 12,7 24 13 37 20 NE 1014,8 - 0,0
22.05.2019 09:00:00 16,3 10,8 13 7 18 10 ENE 1014,4 - 0,0
22.05.2019 08:00:00 16,0 10,5 4 2 11 6 WSW 1014,0 15 0,0
22.05.2019 07:00:00 16,0 8,7 3 2 19 10 NNW 1013,9 - 0,0
22.05.2019 06:00:00 15,8 9,2 14 8 24 13 ESE 1013,4 - 0,0
22.05.2019 05:00:00 16,1 9,3 14 8 24 13 ESE 1013,4 - 0,0
22.05.2019 04:00:00 16,0 9,4 19 10 29 16 E 1013,4 - 0,0
22.05.2019 03:00:00 17,7 8,0 16 9 43 23 SW 1013,3 - 0,0
22.05.2019 02:00:00 17,3 7,6 23 13 49 26 WSW 1013,2 - 0,0
22.05.2019 01:00:00 17,6 7,6 31 17 71 38 WSW 1013,6 - 0,0
22.05.2019 00:00:00 18,3 6,8 43 23 72 39 SW 1013,4 - 0,0
21.05.2019 23:00:00 17,8 6,3 30 16 67 36 SW 1014,2 - 0,0
21.05.2019 22:00:00 18,3 6,8 39 21 95 52 SW 1013,4 - 0,0
21.05.2019 21:00:00 18,3 7,4 45 25 71 38 SW 1013,0 - 0,0
21.05.2019 20:00:00 18,6 8,0 51 28 87 47 SW 1012,5 20 0,0
21.05.2019 19:00:00 19,5 8,8 44 24 89 48 WSW 1012,2 - 0,0
21.05.2019 18:00:00 19,7 9,3 45 24 73 40 W 1011,7 - 0,0
21.05.2019 17:00:00 19,9 10,0 40 21 87 47 WSW 1011,4 - 0,0
21.05.2019 16:00:00 22,0 6,2 55 30 89 48 WSW 1010,9 - 0,0
21.05.2019 15:00:00 22,3 6,9 58 31 96 52 WSW 1010,8 - 0,0
21.05.2019 14:00:00 22,2 5,6 61 33 93 50 SW 1010,4 25 0,0
21.05.2019 13:00:00 22,3 6,5 46 25 83 45 SW 1010,2 - 0,0
21.05.2019 12:00:00 21,6 7,0 51 28 83 45 WSW 1009,9 - 0,0
21.05.2019 11:00:00 21,1 7,7 40 22 76 41 WSW 1009,7 - 0,0
21.05.2019 10:00:00 20,2 7,5 36 19 77 42 WSW 1009,5 - 0,0
21.05.2019 09:00:00 19,2 7,3 39 21 76 41 WSW 1009,2 - 0,0
21.05.2019 08:00:00 18,1 7,2 37 20 75 40 WSW 1008,5 25 0,0
21.05.2019 07:00:00 17,8 7,2 44 24 75 40 SW 1008,1 - 0,0
21.05.2019 06:00:00 16,6 7,8 32 17 64 34 WSW 1008,1 - 0,0
21.05.2019 05:00:00 16,4 8,4 39 21 70 38 WSW 1008,1 20 0,0
21.05.2019 04:00:00 16,0 9,6 41 22 77 42 WSW 1008,3 - 0,0
21.05.2019 03:00:00 15,9 10,0 42 23 67 36 WSW 1008,6 - 0,0
21.05.2019 02:00:00 16,2 9,8 40 21 71 38 WSW 1009,1 - 0,0
21.05.2019 01:00:00 16,5 9,7 47 25 86 46 SW 1008,9 - 0,0
21.05.2019 00:00:00 16,5 10,3 48 26 78 42 SW 1008,6 - 0,0
20.05.2019 23:00:00 16,5 9,9 43 23 77 42 SW 1008,2 - 0,0
20.05.2019 22:00:00 16,0 10,3 43 23 74 40 SW 1008,0 - 0,0
20.05.2019 21:00:00 16,4 10,0 33 18 71 38 SW 1008,0 - 0,0
20.05.2019 20:00:00 17,3 9,9 43 23 65 35 SW 1007,7 20 0,0
20.05.2019 19:00:00 17,6 10,2 36 19 67 36 WSW 1007,5 - 0,0
20.05.2019 18:00:00 17,6 11,8 38 21 63 34 W 1007,0 - 0,0
20.05.2019 17:00:00 17,9 11,5 35 19 58 32 WSW 1006,8 - 0,0
20.05.2019 16:00:00 16,2 11,6 30 16 50 27 W 1007,3 - 0,0
20.05.2019 15:00:00 17,9 8,5 6 4 22 12 WNW 1007,6 - 0,0
20.05.2019 14:00:00 18,0 8,0 14 8 23 12 NE 1007,4 - 0,0
20.05.2019 13:00:00 17,1 7,4 10 5 19 10 NNE 1007,0 - 0,0
20.05.2019 12:00:00 16,8 7,4 11 6 19 10 NNE 1006,6 - 0,0
20.05.2019 11:00:00 16,6 8,0 11 6 19 11 N 1006,5 40 0,0
20.05.2019 10:00:00 15,9 6,9 11 6 18 10 NE 1006,3 - 0,0
20.05.2019 09:00:00 15,5 5,7 10 5 16 9 NE 1006,0 - 0,0
20.05.2019 08:00:00 14,3 6,1 10 5 16 9 ESE 1005,9 - 0,0
20.05.2019 07:00:00 13,4 5,0 4 2 24 13 E 1005,6 - 0,0
20.05.2019 06:00:00 14,3 4,6 13 7 27 15 SW 1005,2 - 0,0
20.05.2019 05:00:00 14,4 4,4 19 10 44 24 SW 1005,5 20 0,0
20.05.2019 04:00:00 13,9 4,2 21 11 49 27 SW 1006,1 - 0,0
20.05.2019 03:00:00 13,8 4,9 34 18 54 29 SW 1005,7 - 0,0
20.05.2019 02:00:00 13,3 6,4 29 15 45 24 SW 1006,5 - 0,0
20.05.2019 01:00:00 13,3 6,4 27 14 42 23 WSW 1006,8 - 0,0
20.05.2019 00:00:00 13,6 6,2 29 16 44 24 SW 1006,7 - 0,0
19.05.2019 23:00:00 13,5 7,5 26 14 40 21 WSW 1006,6 - 0,0
19.05.2019 22:00:00 13,8 7,8 26 14 53 28 WSW 1006,7 - 0,0
19.05.2019 21:00:00 14,2 8,4 29 16 58 31 WSW 1006,1 - 0,0
19.05.2019 20:00:00 15,3 9,0 33 18 59 32 WSW 1005,9 22 0,0
19.05.2019 19:00:00 16,4 9,1 37 20 70 38 W 1005,3 - 0,0
19.05.2019 18:00:00 16,5 11,4 38 20 71 38 W 1005,1 - 0,0
19.05.2019 17:00:00 16,8 11,3 40 21 65 35 W 1004,7 22 0,0
19.05.2019 16:00:00 17,1 11,4 35 19 67 36 W 1004,7 - 0,0
19.05.2019 15:00:00 17,4 10,3 35 19 68 37 WSW 1004,8 - 0,0
19.05.2019 14:00:00 17,9 9,5 46 25 74 40 SW 1004,3 20 0,0
19.05.2019 13:00:00 16,6 8,0 43 23 69 37 WSW 1004,1 - 0,0
19.05.2019 12:00:00 16,2 8,7 40 21 64 34 SW 1004,1 - 0,0
19.05.2019 11:00:00 16,4 9,3 39 21 59 32 SW 1004,2 20 0,0
19.05.2019 10:00:00 14,9 10,1 33 18 52 28 WSW 1004,3 - 0,0
19.05.2019 09:00:00 13,3 10,8 20 11 31 17 WSW 1004,6 - 0,0
19.05.2019 08:00:00 11,6 9,8 11 6 38 21 WSW 1004,8 15 1,2
19.05.2019 07:00:00 11,6 10,0 33 18 50 27 SW 1004,9 - 1,4
19.05.2019 06:00:00 11,6 10,5 26 14 43 23 WSW 1004,9 - 0,0
19.05.2019 05:00:00 11,7 10,8 18 10 29 16 WSW 1005,1 15 0,0
19.05.2019 04:00:00 11,7 10,8 24 13 37 20 WSW 1005,6 - 0,0
19.05.2019 03:00:00 11,6 10,7 25 13 36 19 SW 1005,8 - 0,0
19.05.2019 02:00:00 11,6 11,0 23 12 34 19 WSW 1006,5 - 0,0
19.05.2019 01:00:00 11,7 11,2 16 9 23 12 SW 1007,0 - 0,0
19.05.2019 00:00:00 11,8 11,3 14 8 26 14 WSW 1007,2 - 0,0
18.05.2019 23:00:00 11,7 11,5 11 6 33 18 WSW 1007,2 - 1,2
18.05.2019 22:00:00 12,4 12,4 18 10 34 18 W 1007,0 - 0,4
18.05.2019 21:00:00 12,7 12,5 24 13 44 24 NW 1006,5 - 0,0
18.05.2019 20:00:00 13,1 12,8 27 14 38 21 WNW 1005,7 12 0,6
18.05.2019 19:00:00 13,6 13,0 18 10 32 17 NW 1005,2 - 0,0
18.05.2019 18:00:00 13,5 12,9 21 12 28 15 N 1005,0 - 0,0
18.05.2019 17:00:00 13,3 12,7 20 11 35 19 N 1004,4 12 0,0
18.05.2019 16:00:00 13,2 12,6 32 18 53 28 N 1003,9 - 0,8
18.05.2019 15:00:00 13,3 12,8 36 19 46 25 N 1003,6 - 2,6
18.05.2019 14:00:00 14,6 14,0 13 7 26 14 ENE 1003,2 12 0,6
18.05.2019 13:00:00 14,8 12,7 10 5 18 10 NNE 1002,9 - 0,0
18.05.2019 12:00:00 15,9 13,7 9 5 19 11 N 1002,5 23 0,0
18.05.2019 11:00:00 14,6 12,3 9 5 21 11 NE 1002,1 - 0,0
18.05.2019 10:00:00 15,0 11,9 11 6 26 14 ENE 1001,5 - 0,0
18.05.2019 09:00:00 15,1 13,1 18 10 24 13 ENE 1001,0 - 0,0
18.05.2019 08:00:00 14,1 11,1 4 2 25 14 WNW 1000,6 - 0,0
18.05.2019 07:00:00 13,5 10,5 10 6 27 14 W 1000,1 - 0,0
18.05.2019 06:00:00 12,5 10,7 13 7 26 14 WSW 1000,2 - 0,0
18.05.2019 05:00:00 12,6 10,7 10 5 14 8 W 1000,4 20 0,0
18.05.2019 04:00:00 12,4 11,0 9 5 21 11 ENE 1000,9 - 0,0
18.05.2019 03:00:00 12,6 12,0 12 7 38 20 ESE 1001,4 - 0,0
18.05.2019 02:00:00 12,7 12,2 27 15 51 28 ENE 1001,5 - 0,8
18.05.2019 01:00:00 13,1 12,6 36 20 60 32 E 1001,4 - 0,6
18.05.2019 00:00:00 12,7 11,6 42 23 57 31 E 1001,6 - 0,8
17.05.2019 23:00:00 13,1 11,3 25 14 36 19 NE 1003,6 - 1,8
17.05.2019 22:00:00 15,6 8,6 8 4 23 12 WNW 1003,6 - 0,0
17.05.2019 21:00:00 15,7 7,2 16 8 27 15 WSW 1002,0 - 0,0
17.05.2019 20:00:00 15,9 8,1 12 6 37 20 SW 1001,3 - 0,0
17.05.2019 19:00:00 16,3 7,8 9 5 15 8 E 1001,5 - 0,0
17.05.2019 18:00:00 16,0 9,0 5 3 13 7 WSW 1001,7 - 0,0
17.05.2019 17:00:00 16,6 11,1 7 4 14 8 WSW 1002,4 20 0,0
17.05.2019 16:00:00 18,5 10,3 7 4 21 12 NNE 1003,2 - 0,0
17.05.2019 15:00:00 17,3 9,5 9 5 15 8 W 1004,3 - 0,0
17.05.2019 14:00:00 18,8 6,6 5 3 10 5 W 1004,5 - 0,0

tt = temperature
td = dewpoint
ff = wind speed
fx = gusts
dd = wind direction
ppp = reduced air pressure
vv = visibility
rr = precipitation

Next stations